Regional Weather Roundup
Issued by NWS Northern Indiana

Home | Current Version | Previous Version | Graphics & Text | Print | Product List | Glossary On
Versions: 1 2 3 4 5 6 7 8 9 10 11 12 13 14 15 16 17 18 19 20 21 22 23 24 25 26 27 28 29 30 31 32 33 34 35 36 37 38 39 40 41 42 43 44 45 46 47 48 49 50
000
ASUS43 KIWX 292210
RWRIWX

KIWX WEATHER ROUNDUP
NATIONAL WEATHER SERVICE NORTHERN INDIANA
600 PM EDT FRI AUG 29 2014

NOTE: "FAIR" INDICATES FEW OR NO CLOUDS BELOW 12,000 FEET WITH NO
SIGNIFICANT WEATHER AND/OR OBSTRUCTIONS TO VISIBILITY.

* THESE STATIONS ARE NOT UNDER NWS QUALITY CONTROL. THEY ALSO MAY NOT
  REPORT WEATHER SUCH AS PRECIPITATION OR FOG.

INZ001>027-292300-
NORTHERN INDIANA

CITY           SKY/WX    TMP DP  RH WIND       PRES   REMARKS
GARY*          PTSUNNY   82  73  74 SE9       29.92F
VALPARAISO     PTSUNNY   78  72  81 SE8       29.95F
MICHIGAN CITY* MOSUNNY   77  68  73 CALM      29.94F
LAPORTE*       MOSUNNY   77  71  82 SE6       29.96S
KNOX*          MOSUNNY   78  70  74 SE6       29.94F
SOUTH BEND     PTSUNNY   77  72  84 SE12      29.97F
ELKHART*       CLOUDY    75  73  94 S7        29.99S FOG
GOSHEN         PTSUNNY   83  70  64 SE8       29.98F
MONTICELLO*    PTSUNNY   82  73  75 SE6       29.93S
LOGANSPORT*    PTSUNNY   79  68  69 SE7       29.96S
ROCHESTER*     MOSUNNY   84  72  65 SE8       29.97F
WARSAW*        MOSUNNY   81  70  69 SE6       29.99S
ANGOLA*        SUNNY     81  68  65 S7        30.01F
FORT WAYNE     PTSUNNY   81  69  67 SE9       30.00F
HUNTINGTON*    MOSUNNY   82  70  67 SE5       29.99F
PERU/GRISSOM   MOSUNNY   80  75  83 SE7       29.97F
MARION*        SUNNY     83  68  60 SE8       29.99S

$$
INZ028>050-292300-
CENTRAL INDIANA

CITY           SKY/WX    TMP DP  RH WIND       PRES   REMARKS
LAFAYETTE      PTSUNNY   83  73  72 SE9       29.92F
KOKOMO*        PTSUNNY   79  70  73 SE7       29.97S
MUNCIE*        MOSUNNY   83  68  60 SE9       29.99F
INDIANAPOLIS   MOSUNNY   85  71  63 SE10      29.94F

$$
MIZ043>046-050>051-056>058-064>065-071>073-077>080-292300-
SOUTHWEST LOWER MICHIGAN

CITY           SKY/WX    TMP DP  RH WIND       PRES   REMARKS
BATTLE CREEK   PTSUNNY   80  66  62 SE7       30.00F
BENTON HARBOR  PTSUNNY   79  71  76 SE14G23   29.94F
COLDWATER*     PTSUNNY   82  67  60 S6        30.01S
HILLSDALE*     MOSUNNY   81  65  57 S6        30.03S
HOLLAND        CLOUDY    77  71  82 SE9       29.95F
GRAND RAPIDS   CLOUDY    73  72  96 SE13      29.98F
KALAMAZOO      LGT RAIN  78  68  71 S5        29.99F
STURGIS*       LGT RAIN  79  70  73 SE10      29.99S
THREE RIVERS*  HVY RAIN  76  71  83 S5        30.00S

$$
OHZ001>008-015>018-024>025-292300-
NORTHWEST OHIO

CITY           SKY/WX    TMP DP  RH WIND       PRES   REMARKS
WAUSEON*       FAIR      82  64  54 SE10      30.03S
DEFIANCE       CLOUDY    83  65  54 SE6       30.02S
FINDLAY        SUNNY     83  64  52 SE9       30.03S
TOLEDO EXPRESS MOSUNNY   80  62  54 SE3       30.03S
TOLEDO METCALF SUNNY     81  59  47 E8        30.04F
LIMA           SUNNY     83  66  56 SE7       30.04S

$$
&&



USA.gov is the U.S. government's official web portal to all federal, state and local government web resources and services.